Time,TemperatureF,DewpointF,PressureIn,WindDirection,WindDirectionDegrees,WindSpeedMPH,WindSpeedGustMPH,Humidity,HourlyPrecipIn,Conditions,Clouds,dailyrainin,SoftwareType,DateUTC
2013-06-06 00:00:00,60.1,26.0,29.76,SSW,211,0.0,0.0,27,0.00,,SKC,0.00,VWS V12.07,2013-06-06 06:00:00,
2013-06-06 00:30:00,59.5,24.6,29.76,SSW,211,0.0,0.0,26,0.00,,SKC,0.00,VWS V12.07,2013-06-06 06:30:00,
2013-06-06 01:00:00,57.8,24.9,29.77,SSW,211,0.0,0.0,28,0.00,,SKC,0.00,VWS V12.07,2013-06-06 07:00:00,
2013-06-06 01:30:00,57.5,22.9,29.77,SSW,211,0.0,0.0,26,0.00,,SKC,0.00,VWS V12.07,2013-06-06 07:30:00,
2013-06-06 02:00:00,59.0,19.1,29.76,SSW,211,0.0,0.0,21,0.00,,SKC,0.00,VWS V12.07,2013-06-06 08:00:00,
2013-06-06 02:30:00,57.0,21.5,29.75,SSW,211,0.0,0.0,25,0.00,,SKC,0.00,VWS V12.07,2013-06-06 08:30:00,
2013-06-06 03:01:00,56.3,22.8,29.76,SSW,211,0.0,0.0,27,0.00,,SKC,0.00,VWS V12.07,2013-06-06 09:01:00,
2013-06-06 03:30:00,56.5,22.9,29.76,SSW,211,0.0,0.0,27,0.00,,SKC,0.00,VWS V12.07,2013-06-06 09:30:00,
2013-06-06 04:01:00,56.7,20.3,29.74,SSW,211,0.0,0.0,24,0.00,,SKC,0.00,VWS V12.07,2013-06-06 10:01:00,
2013-06-06 04:30:00,56.3,21.0,29.74,SSW,211,0.0,0.0,25,0.00,,SKC,0.00,VWS V12.07,2013-06-06 10:30:00,
2013-06-06 05:01:00,56.2,21.8,29.75,SSW,211,0.0,0.0,26,0.00,,SKC,0.00,VWS V12.07,2013-06-06 11:01:00,
2013-06-06 05:30:00,55.4,22.0,29.78,SSW,211,0.0,0.0,27,0.00,,SKC,0.00,VWS V12.07,2013-06-06 11:30:00,
2013-06-06 06:01:00,55.6,23.0,29.77,SSW,211,0.0,0.0,28,0.00,,SKC,0.00,VWS V12.07,2013-06-06 12:01:00,
2013-06-06 06:30:00,54.5,22.9,29.79,SSW,211,0.0,0.0,29,0.00,,SKC,0.00,VWS V12.07,2013-06-06 12:30:00,
2013-06-06 07:01:00,55.1,25.8,29.79,SSW,211,0.0,0.0,32,0.00,,SKC,0.00,VWS V12.07,2013-06-06 13:01:00,
2013-06-06 07:30:00,54.7,27.6,29.80,SSW,211,0.0,0.0,35,0.00,,SKC,0.00,VWS V12.07,2013-06-06 13:30:00,
2013-06-06 08:00:00,61.6,32.2,29.81,SSW,211,0.0,0.0,33,0.00,,SKC,0.00,VWS V12.07,2013-06-06 14:00:00,
2013-06-06 08:30:00,65.0,31.1,29.77,SSW,211,0.0,0.0,28,0.00,,SKC,0.00,VWS V12.07,2013-06-06 14:30:00,
2013-06-06 09:01:00,66.9,35.3,29.81,SSW,211,0.0,0.0,31,0.00,,SKC,0.00,VWS V12.07,2013-06-06 15:01:00,
2013-06-06 09:30:00,66.9,36.9,29.81,SSW,206,0.0,1.0,33,0.00,,SKC,0.00,VWS V12.07,2013-06-06 15:30:00,
2013-06-06 10:01:00,67.8,36.1,29.81,ESE,113,1.0,1.0,31,0.00,,SKC,0.00,VWS V12.07,2013-06-06 16:01:00,
2013-06-06 10:30:00,69.8,41.7,29.80,ESE,115,0.0,1.0,36,0.00,,SKC,0.00,VWS V12.07,2013-06-06 16:30:00,
2013-06-06 11:00:00,70.3,36.6,29.80,ESE,105,0.0,2.0,29,0.00,,SKC,0.00,VWS V12.07,2013-06-06 17:00:00,
2013-06-06 11:30:00,71.8,36.0,29.80,East,89,0.0,2.0,27,0.00,,SKC,0.00,VWS V12.07,2013-06-06 17:30:00,
2013-06-06 12:01:00,73.3,33.3,29.80,East,88,0.0,3.0,23,0.00,,SKC,0.00,VWS V12.07,2013-06-06 18:01:00,
2013-06-06 12:30:00,75.3,35.0,29.78,East,88,0.0,1.0,23,0.00,,SKC,0.00,VWS V12.07,2013-06-06 18:30:00,
2013-06-06 13:00:00,76.0,35.6,29.79,East,81,0.0,3.0,23,0.00,,SKC,0.00,VWS V12.07,2013-06-06 19:00:00,
2013-06-06 13:30:00,76.0,29.5,29.78,ENE,63,0.0,2.0,18,0.00,,SKC,0.00,VWS V12.07,2013-06-06 19:30:00,
2013-06-06 14:01:00,77.6,29.4,29.76,ENE,64,0.0,6.0,17,0.00,,SKC,0.00,VWS V12.07,2013-06-06 20:01:00,
2013-06-06 14:30:00,78.1,32.5,29.75,ENE,70,3.0,9.0,19,0.00,,SKC,0.00,VWS V12.07,2013-06-06 20:30:00,
2013-06-06 15:01:00,77.9,33.6,29.75,ESE,107,0.0,9.0,20,0.00,,SKC,0.00,VWS V12.07,2013-06-06 21:01:00,
2013-06-06 15:30:00,78.6,34.2,29.74,ENE,73,1.0,6.0,20,0.00,,SKC,0.00,VWS V12.07,2013-06-06 21:30:00,
2013-06-06 18:30:00,77.7,32.2,29.73,East,86,3.0,7.0,19,0.00,,SKC,0.00,VWS V12.07,2013-06-07 00:30:00,
2013-06-06 19:01:00,76.1,32.2,29.75,East,91,2.0,9.0,20,0.00,,SKC,0.00,VWS V12.07,2013-06-07 01:01:00,
2013-06-06 19:30:00,73.3,31.0,29.76,East,96,0.0,7.0,21,0.00,,SKC,0.00,VWS V12.07,2013-06-07 01:30:00,
2013-06-06 20:00:00,70.8,37.9,29.70,East,97,0.0,7.0,30,0.00,,SKC,0.00,VWS V12.07,2013-06-07 02:00:00,
2013-06-06 20:30:00,68.3,34.0,29.73,East,97,0.0,0.0,28,0.00,,SKC,0.00,VWS V12.07,2013-06-07 02:30:00,
2013-06-06 21:00:00,65.5,33.3,29.72,East,97,0.0,0.0,30,0.00,,SKC,0.00,VWS V12.07,2013-06-07 03:00:00,
2013-06-06 21:30:00,67.3,30.3,29.73,SW,225,0.0,0.0,25,0.00,,SKC,0.00,VWS V12.07,2013-06-07 03:30:00,
2013-06-06 22:00:00,66.8,27.8,29.72,WSW,240,0.0,0.0,23,0.00,,SKC,0.00,VWS V12.07,2013-06-07 04:00:00,
2013-06-06 22:30:00,66.8,26.8,29.72,SW,231,0.0,0.0,22,0.00,,SKC,0.00,VWS V12.07,2013-06-07 04:30:00,
2013-06-06 23:01:00,66.4,28.5,29.71,WSW,242,0.0,0.0,24,0.00,,SKC,0.00,VWS V12.07,2013-06-07 05:01:00,
2013-06-06 23:30:00,65.3,28.6,29.71,WSW,242,0.0,0.0,25,0.00,,SKC,0.00,VWS V12.07,2013-06-07 05:30:00,